Find Starlink 3851

NORAD ID: 52344 Int'l Des: 2022-045 Owner: SPXS Country: US Constellation: starlink operational
LEOCIRCULAR

現在のビュー

3D地球を読み込み中...

About Starlink 3851

Starlink 3851 (NORAD 52344) is a starlink constellation satellite (v1.5) launched Apr 29, 2022 by SPXS of US. It operates in LEO, CIRCULAR orbit with a mass of 297.00 kg.

Starlink 3851について

説明を読み込み中...

次回通過

Passes for default location (London). Set your location on the main map for personalized predictions.

高度履歴

Loading altitude history...

軌道要素

1 52344U 22045P 26164.16665493 .00001585 00000-0 11769-3 0 9996
2 52344 53.1604 130.5049 0001271 78.4530 281.6605 15.08820944230193
Epoch: Jun 13, 2026 • Age: 11 hours

現在のステータス

高度 542.7 km
速度 7.60 km/s
衛星直下点 40.70°N, 35.77°E
打ち上げ日 Apr 29, 2022
運用期間 4.1 years
タイプ internet

技術仕様

分類 Payload
質量 297.00 kg
乾燥質量 275.00 kg
総質量 297.00 kg
長さ 0.20 m
直径 2.80 m
スパン 9.00 m
形状 Box + pan
製造者 SPXS
バスタイプ Starlink
フェーズステータス In Orbit
所有者/国 SPXS/US

Most Searched